Tracking 29606 objects as of 18-Sep-2024
HD Live streaming from Space Station
objects crossing your sky now

COSMOS 2340

Track COSMOS 2340 now!
COSMOS 2340 is classified as:


NORAD ID: 24761
Int'l Code: 1997-015A
Perigee: 2,432.5 km
Apogee: 37,950.6 km
Inclination: 65.3 °
Period: 718.1 minutes
Semi major axis: 26562 km
RCS: 6.3095 m2 (large)
Launch date: April 9, 1997
Source: Commonwealth of Independent States (former USSR) (CIS)
Launch site: PLESETSK MISSILE AND SPACE COMPLEX (PKMTR)
Your satellite tracking list
Your tracking list is empty




NASA's NSSDC Master Catalog

Two Line Element Set (TLE):
1 24761U 97015A   24260.04544277 -.00000833  00000-0  00000-0 0  9994
2 24761  65.3037 205.1935 6685749 159.0361 252.3920  2.00538697201029
Source of the keplerian elements: AFSPC